www.pogodaiklimat.ru

Погода и климат >> Архив погоды >> Россия >> Чукотка >> Илирней


АРХИВ ПОГОДЫ в Илирнее

Время (UTC), дата Ветер
(напр.,м/с)
 
Видим.   Явления Облачность Т
(С)
Тd
(С)
f
(%)
Тe
(С)
Тes
(С)
Комфортность P
(гПа)
Po
(гПа)
Тmin
(С)
Tmax
(С)
R
(мм)
R24
(мм)
S
(см)
18 16.07 З 4
{9}
50 км 10/8 1000 м
[Cu med, cong Cs]
+11.1 +6.6 74 +9 +9 1005.5 963.9
21 16.07 СЗ 3
{9}
50 км 10/8 1000 м
[Cu med, cong Cs]
+11.6 +6.8 72 +10 +11 1005.8 964.3 +8.7
00 17.07 З 3
{8}
50 км 10/10 1000 м
[Cu med, cong]
+12.2 +6.3 67 +11 +11 1005.6 964.2
03 17.07 З 5
{9}
50 км 10/10 600 м
[St]
+12.1 +6.8 70 +10 +10 1005.6 964.1
06 17.07 З 2
{8}
50 км 10/10 600 м
[Sc]
+12.8 +6.4 65 +12 +12 1004.9 963.6
09 17.07 З 1
{6}
50 км 10/10 600 м
[Sc]
+11.6 +7.0 73 +12 +12 1004.9 963.4 +13.2
12 17.07 ЮВ 1
{4}
50 км 10/10 600 м
[Sc]
+7.5 +6.2 91 +7 +7 1005.4 963.3
15 17.07 ЮВ 1
{3}
50 км 10/10 600 м
[Sc]
+6.3 +5.9 97 +5 +5 1005.7 963.3
18 17.07 штиль 0 50 км 10/10 600 м
[Sc]
+7.5 +6.4 93 +7 +7 1004.8 962.8
21 17.07 штиль 0 50 км 10/10 600 м
[Sc]
+9.8 +8.0 89 +9 +9 1004.6 962.9 +6.3
00 18.07 З 2
{4}
50 км 10/10 600 м
[Sc]
+13.5 +6.2 61 +13 +13 1004.2 963.0
03 18.07 СЗ 4
{8}
50 км 10/10 1000 м
[Cu med, cong]
+13.3 +5.9 61 +12 +12 1004.8 963.6
06 18.07 СЗ 4
{8}
50 км 10/10 1000 м
[Cu med, cong]
+11.2 +6.2 71 +9 +9 1006.0 964.4
09 18.07 ЮЗ 1
{6}
50 км 10/10 1000 м
[Cu med, cong]
+9.7 +6.1 78 +9 +9 1007.1 965.2 +14.3
12 18.07 штиль 0
{3}
20 км слаб. дождь 10/0
[As op]
+7.7 +7.4 98 +7 +7 1008.8 966.6
15 18.07 штиль 0
{2}
50 км {дождь} 10/10 1000 м
[Cu med, cong]
+6.7 +6.7 100 +6 +6 1009.6 967.2
18 18.07 штиль 0
{1}
50 км 10/10 1000 м
[Cu med, cong]
+7.0 +5.5 90 +6 +6 1010.4 968.0
21 18.07 В 3
{4}
50 км 10/10
[Cu med, cong]
+7.3 +5.9 91 +4 +4 1011.6 969.2 +6.5
00 19.07 В 3
{5}
50 км 10/10 1000 м
[Cu med, cong]
+8.0 +6.2 88 +5 +5 1012.3 969.9
03 19.07 В 3
{6}
50 км 10/3 600 м
[Sc Ac As]
+8.7 +6.0 83 +6 +8 1012.4 970.1
06 19.07 В 2
{6}
50 км 10/3 600 м
[Sc Ac As]
+8.0 +6.7 91 +6 +7 1012.1 969.8
09 19.07 В 3
{6}
20 км {дождь} 10/0
[As op]
+7.7 +7.1 96 +5 +5 1011.8 969.4 +8.8 0.2
12 19.07 В 2
{5}
20 км слаб. дождь 10/0
[As op]
+7.0 +6.7 98 +5 +5 1011.5 969.0
15 19.07 С 1
{3}
4000 м слаб. дождь 10/0
[As op]
+6.8 +6.6 99 +6 +6 1011.0 968.6
18 19.07 штиль 0
{2}
20 км слаб. дождь 10/0
[As op]
+7.2 +7.0 99 +6 +6 1010.9 968.6
21 19.07 С 2
{4}
50 км {дождь} 10/0
[Ac und]
+8.2 +7.3 94 +6 +8 1011.4 969.2 +6.7 0.8
00 20.07 С 2
{4}
20 км слаб. дождь 10/0
[As op]
+8.5 +7.0 90 +7 +9 1012.1 969.9
03 20.07 штиль 0
{3}
50 км {дождь} 10/8 600 м
[Sc As op]
+10.3 +5.6 73 +10 +10 1011.4 969.5
06 20.07 штиль 0
{4}
50 км 10/6 600 м
[Sc As op]
+11.9 +5.9 67 +12 +12 1010.5 968.9
09 20.07 Ю 2
{4}
50 км 10/10 600 м
[Sc]
+8.8 +7.7 93 +7 +7 1011.4 969.2 +11.9 0.0
12 20.07 штиль 0
{4}
50 км 10/10 600 м
[Sc]
+7.6 +6.7 94 +7 +7 1010.8 968.6
15 20.07 штиль 0
{2}
20 км слаб. дождь 10/3 600 м
[Sc As op]
+6.6 +6.2 97 +5 +5 1010.3 967.9
18 20.07 С 1
{2}
20 км слаб. дождь 10/0
[As op]
+6.7 +5.8 94 +6 +6 1008.9 966.6
21 20.07 штиль 0
{2}
50 км {дождь} 10/0
[As op]
+7.6 +5.6 87 +7 +8 1008.5 966.3 +6.6 0.4
00 21.07 З 1
{3}
50 км 10/0
[As op]
+8.2 +6.8 91 +7 +10 1007.4 965.2
03 21.07 С 1
{4}
50 км 10/8 600 м
[Sc Ac As]
+10.3 +5.9 74 +10 +11 1005.3 963.6
06 21.07 штиль 0
{5}
50 км 10/8 600 м
[Sc Ac As]
+11.8 +9.2 84 +11 +12 1002.4 961.0
09 21.07 З 2
{4}
50 км 10/8 600 м
[Sc Ac As]
+9.5 +5.1 74 +8 +8 1003.2 961.5 +11.6
12 21.07 штиль 0
{4}
50 км 10/0
[Ac und]
+7.8 +4.8 81 +7 +7 1002.4 960.4
15 21.07 Ю 1
{3}
50 км 10/0
[Ac und]
+6.0 +5.7 98 +5 +5 1002.2 960.0
18 21.07 штиль 0
{2}
50 км 10/0
[Ac und]
+6.2 +5.4 95 +5 +6 1001.1 959.0
21 21.07 СЗ 1
{4}
50 км 10/0
[Ac und]
+8.0 +4.6 79 +7 +9 999.9 958.1 +5.6
00 22.07 С 6
{11}
50 км 10/8 600 м
[Sc Ac As]
+9.2 +3.2 66 +6 +6 999.4 957.7
03 22.07 СЗ 5
{11}
50 км 10/8 600 м
[Sc Ac As]
+8.9 +6.6 85 +5 +7 1000.0 958.3
06 22.07 СЗ 5
{10}
50 км 10/4 600 м
[Sc Ac As]
+8.1 +4.5 78 +4 +5 1000.9 959.0
09 22.07 СЗ 5
{10}
50 км 10/3 600 м
[Sc Ac As]
+6.1 +2.9 80 +2 +2 1003.6 961.3 +11.2
12 22.07 СЗ 4
{9}
50 км 10/3 600 м
[Sc Ac As]
+4.6 +2.4 86 0 0 1005.5 962.8
15 22.07 СЗ 2
{8}
50 км 10/0
[Ac und]
+3.4 +1.6 88 0 0 1007.1 964.2
18 22.07 СЗ 4
{10}
50 км 10/0
[Ac und]
+3.7 +1.4 85 -1 -1 1008.0 965.1
21 22.07 З 2
{9}
50 км 10/0
[Ac und]
+4.7 +1.9 82 +2 +4 1009.4 966.5 +3.4
00 23.07 З 2
{6}
50 км 10/8 600 м
[Sc Ac As]
+6.8 +1.8 70 +5 +5 1009.5 967.1
03 23.07 З 4
{9}
50 км 8/8 600 м
[Cb cap]
+9.6 +1.9 59 +7 +8 1008.8 966.8
06 23.07 З 3
{9}
50 км 8/8 600 м
[Cb cap]
+10.6 +2.1 56 +9 +10 1008.6 966.7
09 23.07 З 4
{8}
50 км 6/3 1000 м
[Cu med, cong Ac und]
+8.0 +2.9 70 +5 +5 1009.7 967.5 +10.8
12 23.07 ЮЗ 1
{8}
50 км 10/0
[Ac und]
+5.3 +3.1 86 +4 +4 1010.8 968.1
15 23.07 З 1
{6}
50 км 10/0
[Ac und]
+4.3 +2.0 85 +3 +3 1010.9 968.0

 

Местоположение метеостанции Илирней (Чукотка, Россия): широта 67.25 долгота 167.90 высота над уровнем моря 354 м.

В архиве по умолчанию представлена погода в Илирнее за последнюю неделю. Архивные данные за месяц целиком и за предыдущие месяцы, начиная с января 2011 года, Вы можете получить, выбрав интересующий диапазон дат из раскрывающегося списка и нажав кнопку "Ввод!".


*Определитесь, кто Вы:
робот инопланетянин человек

Внимание! Время в таблицах - всемирное. Для получения местного времени необходимо прибавить поправку, которая равна 12 ч.

Смотрите также архив погоды в соседних городах и на ближайших метеорологических станциях:

Погода в Билибино (Чукотка, Россия) (109 км)
Погода в Баимке (Чукотка, Россия) (180 км)
Погода в Островном (Чукотка, Россия) (187 км)
Погода в Чауне (Чукотка, Россия) (215 км)
Погода в Эньмувееме (Чукотка, Россия) (255 км)
Погода в Раучуе (Чукотка, Россия) (257 км)
Погода в Майской (Чукотка, Россия) (276 км)
Погода в Певеке (Чукотка, Россия) (288 км)
Погода на 21 км (Чукотка, Россия) (290 км)
Погода в Комсомольской (Чукотка, Россия) (291 км)

Пояснения к столбцам:

Ветер - указаны скорость ветра в м/с - средняя за 10 мин, порывы в срок и между сроками (в фигурных скобках) и направление, откуда дует ветер: С - северный, СВ - северо-восточный, В - восточный, ЮВ - юго-восточный, Ю - южный, ЮЗ - юго-западный, З - западный, СЗ - северо-западный.
Видимость - горизонтальная дальность видимости в метрах или километрах. При видимости от 1 до 10 км при отсутствии осадков обычно наблюдается дымка, при ухудшении видимости до 1 км и менее - туман. В сухую погоду видимость может ухудшаться дымом, пылью или мглою.
Явления - указаны атмосферные явления, наблюдавшиеся в срок или в последний час перед сроком; фигурными скобками обозначены явления, наблюдавшиеся между сроками (за 1-3 часа до срока); квадратными скобками обозначены град или гололедные отложения с указанием их диаметра в мм.
Облачность - указаны через наклонную черту общая и нижняя облачность в баллах и высота нижней границы облаков в метрах; квадратными скобками обозначены формы облаков: Ci - перистые, Cs - перисто-слоистые, Cc - перисто-кучевые, Ac - высококучевые, As - высокослоистые, Sc - слоисто-кучевые, Ns - слоисто-дождевые, Cu - кучевые, Cb - кучево-дождевые. Подробнее классификацию облаков см. в Атласе облаков (PDF).
T - Температура воздуха - температура, измеренная на высоте 2 м над землей.
Td - Температура точки росы - температура, при понижении до которой содержащийся в воздухе водяной пар достигнет насыщения.
f - Относительная влажность воздуха - влажноcть воздуха, измеренная на высоте 2 м над землей.
Te - Эффективная температура - температура, которую ощущает одетый по сезону человек в тени. Характеристика душности погоды. При расчете учитывается влияние влажности воздуха и скорости ветра на теплоощущения человека.
Tes - Эффективная температура на солнце - температура, которую ощущает человек, с поправкой на солнечный нагрев. Характеристика знойности погоды. Зависит от высоты солнца над горизонтом, облачности и скорости ветра. Ночью, в пасмурную погоду, а также при ветре 12 м/с и более поправка равна нулю.
P - Атмосферное давление - приведенное к уровню моря атмосферное давление.
Po - Атмосферное давление - измеренное на уровне метеостанции атмосферное давление.
Tmin - Минимальная температура - минимум температуры воздуха на высоте 2 м над землей.
Tmax - Максимальная температура - максимум температуры воздуха на высоте 2 м над землей.
R - Количество осадков - Количество выпавших осадков за период времени, мм. При наведении курсора мыши на число - период времени, за который выпало указанное количество осадков.
R24 - Количество осадков - Количество выпавших осадков за 24 часа, мм.
S - Снежный покров - Высота снежного покрова, см. При наведении курсора мыши на число - состояние снежного покрова и степень покрытия местности в баллах.